EDT,Max TemperatureF,Mean TemperatureF,Min TemperatureF,Max Dew PointF,MeanDew PointF,Min DewpointF,Max Humidity, Mean Humidity, Min Humidity, Max Sea Level PressureIn, Mean Sea Level PressureIn, Min Sea Level PressureIn, Max VisibilityMiles, Mean VisibilityMiles, Min VisibilityMiles, Max Wind SpeedMPH, Mean Wind SpeedMPH, Max Gust SpeedMPH,PrecipitationIn, CloudCover, Events, WindDirDegrees
2012-10-1,66,53,42,54,47,40,96,79,50,29.93,29.88,29.80,10,9,5,10,4,17,0.10,2,Rain,71
2012-10-2,64,58,53,61,58,52,100,94,83,29.88,29.81,29.75,10,4,0,13,9,21,0.66,8,Fog-Rain,40
2012-10-3,66,60,55,61,57,52,100,89,72,30.09,29.99,29.87,10,6,0,15,6,17,0.05,7,Fog-Rain,189
2012-10-4,75,64,54,55,52,50,90,70,45,30.14,30.09,30.05,10,10,10,15,9,22,0.00,1,,206
2012-10-5,66,54,42,56,49,41,100,89,68,30.11,30.05,29.99,10,7,2,13,9,16,0.87,7,Rain,273
2012-10-6,54,45,37,43,37,33,100,75,50,30.13,30.05,29.99,10,10,3,15,10,26,0.16,5,Rain,277
2012-10-7,50,44,39,37,35,31,89,70,52,30.16,30.12,30.09,10,10,10,12,5,,0.00,6,,255
2012-10-8,54,42,30,34,31,29,93,69,40,30.24,30.18,30.13,10,10,9,10,4,,0.00,1,,180
2012-10-9,61,48,36,40,36,31,93,65,36,30.14,30.04,29.91,10,10,6,16,10,23,0.00,0,,190
2012-10-10,53,43,33,43,37,28,93,71,48,30.20,29.98,29.83,10,10,10,24,13,31,0.03,6,Rain,261
2012-10-11,59,44,30,35,30,27,89,62,35,30.25,30.19,30.11,10,10,10,18,8,30,0.00,0,,212
2012-10-12,54,46,39,39,32,24,76,59,32,30.41,30.33,30.15,10,10,10,14,10,20,0.00,3,Rain,32
2012-10-13,64,50,35,57,41,31,87,74,50,30.37,30.18,29.96,10,9,3,17,9,23,0.18,3,Rain,154
2012-10-14,71,66,55,61,58,50,84,76,61,29.91,29.74,29.55,10,10,10,31,21,48,0.01,3,Rain,200
2012-10-15,54,51,46,48,45,38,94,80,66,29.94,29.82,29.67,10,10,10,26,15,36,0.00,8,,276
2012-10-16,62,48,35,43,38,33,96,68,41,30.00,29.90,29.78,10,10,7,14,5,,0.00,2,Rain,202
2012-10-17,75,62,51,54,47,43,83,65,37,29.78,29.69,29.53,10,10,9,21,11,33,0.18,6,Rain,173
2012-10-18,63,54,46,51,42,30,94,62,32,29.67,29.55,29.40,10,9,2,24,18,39,0.15,4,Rain,202
2012-10-19,55,50,45,44,41,34,93,76,55,29.62,29.59,29.56,10,10,5,15,11,,0.16,7,Rain,178
2012-10-20,55,50,44,45,43,40,93,82,59,29.94,29.73,29.62,10,10,8,20,11,23,0.00,8,Rain,240
2012-10-21,62,50,39,44,41,37,93,71,44,30.12,30.06,29.95,10,10,7,10,6,,0.00,2,,202
2012-10-22,75,60,46,56,50,43,86,70,46,30.10,30.04,29.99,10,10,10,13,7,24,0.02,2,Rain,172
2012-10-23,66,62,57,61,57,52,100,82,60,30.04,29.98,29.93,10,9,2,17,8,25,0.07,6,Rain-Thunderstorm,192
2012-10-24,78,68,59,59,55,51,93,69,50,30.05,30.01,29.96,10,10,7,16,8,,0.02,3,Rain,185
2012-10-25,77,66,54,54,52,48,84,65,43,30.02,29.96,29.89,10,10,10,18,9,30,0.00,0,,174
2012-10-26,66,55,44,54,45,41,93,83,60,30.20,30.11,29.89,10,10,6,16,12,24,0.35,8,Rain,335
2012-10-27,54,47,42,43,39,33,93,76,57,30.17,30.13,30.09,10,10,9,17,11,24,0.05,6,,7
2012-10-28,48,44,39,36,33,29,76,67,56,30.15,30.10,30.05,10,10,10,22,15,32,0.00,8,,5
2012-10-29,42,40,37,34,32,27,87,73,57,30.05,29.93,29.67,10,10,9,30,18,44,0.02,8,Snow,343
2012-10-30,39,36,33,37,33,30,100,89,81,29.64,29.50,29.43,10,6,2,28,21,40,0.50,8,Rain-Snow,319
2012-10-31,41,39,37,39,37,35,96,92,86,29.72,29.63,29.54,10,7,3,16,14,23,0.08,8,Rain-Snow,289